Regional Weather Roundup
Issued by NWS

Home | Current Version | Previous Version | Text Only | Print | Product List | Glossary On
Versions: 1 2 3 4 5 6 7 8 9 10 11 12 13 14 15 16 17 18 19 20 21 22 23 24 25 26 27 28 29 30 31 32 33 34 35 36 37 38 39 40 41 42 43 44 45 46 47 48 49 50
000
ASUS44 KLIX 060410
RWRLA
LOUISIANA WEATHER ROUNDUP
NATIONAL WEATHER SERVICE NEW ORLEANS LA
1000 PM CST FRI FEB 05 2016

NOTE: "FAIR" INDICATES FEW OR NO CLOUDS BELOW 12,000 FEET WITH NO
      SIGNIFICANT WEATHER AND/OR OBSTRUCTIONS TO VISIBILITY.
      SKY/WX - SKY CONDITION AND SIGNIFICANT WEATHER.
      TMP - AIR TEMPERATURE.    DP   - DEWPOINT TEMPERATURE.
      RH  - RELATIVE HUMIDITY.  PRES - PRESSURE.
      HX  - HEAT INDEX.         WCI  - WIND CHILL INDEX.

*  THESE STATIONS ARE NOT NWS OR FAA STATIONS AND ARE NOT UNDER
   NWS QUALITY CONTROL.

LAZ040-048-061>063-065-066-069-060500-
SOUTHEAST LOUISIANA

CITY           SKY/WX    TMP DP  RH WIND       PRES   REMARKS
N.O. AUDUBON   NOT AVBL
N.O. INTL ARPT PTCLDY    44  26  49 CALM      30.38F
N.O. LAKEFRONT CLEAR     47  33  58 CALM      30.39F
N.O. DOWNTOWN* FAIR      48  27  43 MISG      30.39S
RESERVE*       FAIR      42  38  88 CALM      30.39S
SLIDELL        PTCLDY    34  32  92 CALM      30.38F
BATON ROUGE    CLEAR     38  30  73 CALM      30.39S
BOOTHVILLE     CLEAR     44  36  73 N3        30.38F
BELLE CHASSE   CLEAR     35  32  88 CALM      30.38S
BOGALUSA*        N/A     33  30  88 CALM      30.41S
GALLIANO*      PTCLDY    40  34  79 CALM      30.38S
NEW ROADS*     FAIR      39  33  79 CALM      30.40S
GONZALES*      FAIR      38  30  72 CALM      30.39S
HAMMOND*       CLEAR     36  30  80 CALM      30.39S
HOUMA*         CLOUDY    39  33  78 CALM      30.39R
PORT FOURCHON* CLEAR     48  30  49 NE6       30.37F

$$

LAZ041-044-053-054-060500-
SOUTHWEST LOUISIANA

CITY           SKY/WX    TMP DP  RH WIND       PRES   REMARKS
LAKE CHARLES   CLEAR     37  33  85 CALM      30.40R
LAFAYETTE      CLEAR     43  28  55 CALM      30.39S
PATTERSON      PTCLDY    39  32  75 CALM      30.40S
SALT POINT       N/A     43  35  73 CALM      30.39R
NEW IBERIA     PTCLDY    40  33  76 CALM      30.40S
CHENAULT AIRPK CLEAR     39  32  77 CALM      30.40R

$$

LAZ027-028-060500-
CENTRAL LOUISIANA

CITY           SKY/WX    TMP DP  RH WIND       PRES   REMARKS
FORT POLK      CLOUDY    45  26  46 S5        30.37R
ALEXANDRIA INT PTCLDY    44  31  60 E7        30.37S
ALEXANDRIA     PTCLDY    40  30  67 CALM      30.38S

$$

LAZ001-002-060500-
NORTHWEST LOUISIANA

CITY           SKY/WX    TMP DP  RH WIND       PRES   REMARKS
SHREVEPORT     CLEAR     38  26  62 CALM      30.36S
BARKSDALE AFB  CLEAR     36  25  63 CALM      30.36S
DTN SHREVEPORT CLEAR     41  26  55 CALM      30.36S

$$

LAZ014-016-060500-
NORTHEAST LOUISIANA

CITY           SKY/WX    TMP DP  RH WIND       PRES   REMARKS
MONROE         CLEAR     39  32  76 CALM      30.40S
TALLULAH       MOCLDY    41  37  86 CALM      30.40S

$$




USA.gov is the U.S. government's official web portal to all federal, state and local government web resources and services.